This is the latest recevied weather packets stored in our database for station/object KD7CTY. If no packets are shown the sender has not sent any weather packets the latest 10 day(s).
| Time | Temp. | Humidity | Pressure | Rain* | Wind** | Luminosity | Snow |
|---|---|---|---|---|---|---|---|
| 1777413140 | 11.67° C | 80% | 1022.2 hPa | 0 mm | - | 111 W/m² | - |
| 1777412835 | 12.22° C | 78% | 1022.2 hPa | 0 mm | - | 109 W/m² | - |
| 1777412534 | 12.78° C | 76% | 1022.1 hPa | 0 mm | - | 119 W/m² | - |
| 1777412232 | 12.78° C | 73% | 1021.9 hPa | 0 mm | - | 133 W/m² | - |
| 1777411928 | 13.33° C | 72% | 1021.8 hPa | 0 mm | - | 165 W/m² | - |
| 1777411627 | 13.33° C | 73% | 1022 hPa | 0 mm | - | 216 W/m² | - |
| 1777411322 | 12.78° C | 74% | 1022.1 hPa | 0 mm | - | 264 W/m² | - |
| 1777411021 | 12.78° C | 72% | 1022.2 hPa | 0 mm | - | 265 W/m² | - |
| 1777410715 | 12.78° C | 73% | 1022.1 hPa | 0 mm | - | 282 W/m² | - |
| 1777410410 | 12.78° C | 74% | 1022.1 hPa | 0 mm | - | 294 W/m² | - |
| 1777410109 | 12.78° C | 73% | 1022 hPa | 0 mm | - | 282 W/m² | - |
| 1777409804 | 12.22° C | 74% | 1022.2 hPa | 0 mm | - | 265 W/m² | - |
| 1777409500 | 12.78° C | 74% | 1022.1 hPa | 0 mm | - | 236 W/m² | - |
| 1777409196 | 12.78° C | 73% | 1022.2 hPa | 0 mm | - | 212 W/m² | - |
| 1777408891 | 12.78° C | 73% | 1021.9 hPa | 0 mm | - | 242 W/m² | - |
| 1777408588 | 12.78° C | 73% | 1022 hPa | 0 mm | - | 255 W/m² | - |
| 1777408284 | 12.78° C | 73% | 1022.1 hPa | 0 mm | - | 360 W/m² | - |
| 1777407978 | 12.78° C | 73% | 1022 hPa | 0 mm | - | 409 W/m² | - |
| 1777407676 | 12.78° C | 71% | 1022.1 hPa | 0 mm | - | 443 W/m² | - |
| 1777407370 | 12.78° C | 71% | 1022.2 hPa | 0 mm | - | 439 W/m² | - |
| 1777407065 | 12.22° C | 72% | 1022.3 hPa | 0 mm | - | 380 W/m² | - |
| 1777406761 | 12.78° C | 76% | 1022 hPa | 0 mm | - | 310 W/m² | - |
| 1777406455 | 12.22° C | 74% | 1022 hPa | 0 mm | - | 231 W/m² | - |
| 1777406150 | 12.78° C | 73% | 1022 hPa | 0 mm | - | 317 W/m² | - |
| 1777405845 | 12.78° C | 73% | 1021.9 hPa | 0 mm | - | 351 W/m² | - |
* Rain latest hour (hover to see other rain measurements)
** Current wind speed in m/s (hover to see current wind gust speed)